QPF
0.00 0.00 0.00 0.00 0.00 0.00 0.00 0.00 0.00 0.00 0.00 0.00 0.00 0.00 0.00 0.00 0.00 0.00 0.00 0.00 0.00 0.00 0.00 0.00 0.00 0.00 0.00 0.00 0.00 0.00 0.00 0.00 0.00 0.00 0.00 0.00 0.00 0.00 0.00 0.00 0.00 0.00 0.00 0.00
0.00 0.00 0.00 0.00 0.00 0.00 0.00 0.00 0.00 0.00 0.00 0.00 0.00 0.00 0.00 0.00 0.00 0.00 0.00 0.00 0.00 0.00 0.00 0.00 0.00 0.00 0.00 0.00 0.00 0.00 0.00 0.00 0.00 0.00 0.00 0.00 0.00 0.00 0.00 0.00 0.00 0.00 0.00 0.00
0.00 0.00 0.00 0.00 0.00 0.00 0.00 0.00 0.00 0.00 0.00 0.00 0.00 0.00 0.00 0.00 0.00 0.00 0.00 0.00 0.00 0.00 0.00 0.00 0.00 0.00 0.00 0.00 0.00 0.00 0.00 0.00 0.00 0.00 0.00 0.00 0.00 0.00 0.00 0.00 0.00 0.00 0.00 0.00
0.00 0.00 0.00 0.00 0.00 0.00 0.00 0.00 0.00 0.00 0.00 0.00 0.00 0.00 0.00 0.00 0.00 0.00 0.00 0.00 0.00 0.00 0.00 0.00 0.00 0.00 0.00 0.00 0.00 0.00 0.00 0.00 0.00 0.00 0.00 0.00 0.00 0.00 0.00 0.00 0.00 0.00 0.00 0.00
0.00 0.00 0.00 0.00 0.00 0.00 0.00 0.00 0.00 0.00 0.00 0.00 0.00 0.00 0.00 0.00 0.00 0.00 0.00 0.00 0.00 0.00 0.00 0.00 0.00 0.00 0.00 0.00 0.00 0.00 0.00 0.00 0.00 0.00 0.00 0.00 0.00 0.00 0.00 0.00 0.00 0.00 0.00 0.00
0.00 0.00 0.00 0.00 0.00 0.00 0.00 0.00 0.00 0.00 0.00 0.00 0.00 0.00 0.00 0.00 0.00 0.00 0.00 0.00 0.00 0.00 0.00 0.00 0.00 0.00 0.00 0.00 0.00 0.00 0.00 0.00 0.00 0.00 0.00 0.00 0.00 0.00 0.00 0.00 0.00 0.00 0.00 0.00
0.00 0.00 0.00 0.00 0.00 0.00 0.00 0.00 0.00 0.00 0.00 0.00 0.00 0.00 0.00 0.00 0.00 0.00 0.00 0.00 0.00 0.00 0.00 0.00 0.00 0.00 0.00 0.00 0.00 0.00 0.00 0.00 0.00 0.00 0.00 0.00 0.00 0.00 0.00 0.00 0.00 0.00 0.00 0.00
0.00 0.00 0.00 0.00 0.00 0.00 0.00 0.00 0.01 0.02 0.00 0.00 0.00 0.00 0.00 0.00 0.00 0.00 0.00 0.00 0.00 0.00 0.00 0.00 0.00 0.00 0.00 0.00 0.00 0.00 0.00 0.00 0.00 0.00 0.00 0.00 0.00 0.00 0.00 0.00 0.00 0.00 0.00 0.00
0.00 0.00 0.00 0.00 0.00 0.00 0.00 0.00 0.00 0.02 0.02 0.00 0.00 0.00 0.00 0.00 0.00 0.00 0.00 0.00 0.00 0.00 0.00 0.00 0.00 0.00 0.00 0.00 0.00 0.00 0.00 0.00 0.00 0.00 0.00 0.00 0.00 0.00 0.00 0.00 0.00 0.00 0.00 0.00
0.00 0.00 0.00 0.00 0.00 0.00 0.00 0.00 0.00 0.03 0.06 0.03 0.00 0.00 0.00 0.00 0.00 0.00 0.00 0.00 0.00 0.00 0.00 0.00 0.00 0.00 0.00 0.00 0.00 0.00 0.00 0.00 0.00 0.00 0.00 0.00 0.00 0.00 0.00 0.00 0.00 0.00 0.00 0.00
0.00 0.01 0.00 0.00 0.00 0.00 0.00 0.00 0.01 0.04 0.08 0.07 0.03 0.00 0.00 0.00 0.00 0.00 0.00 0.00 0.00 0.00 0.00 0.00 0.00 0.00 0.00 0.00 0.00 0.00 0.00 0.00 0.00 0.00 0.00 0.00 0.00 0.00 0.00 0.00 0.00 0.00 0.00 0.00
0.01 0.03 0.01 0.00 0.00 0.00 0.00 0.00 0.01 0.05 0.06 0.05 0.06 0.03 0.00 0.00 0.00 0.00 0.00 0.00 0.00 0.00 0.00 0.00 0.00 0.00 0.00 0.00 0.00 0.00 0.00 0.00 0.00 0.00 0.00 0.00 0.00 0.00 0.00 0.00 0.00 0.00 0.00 0.00
0.03 0.04 0.04 0.01 0.00 0.01 0.01 0.01 0.02 0.05 0.11 0.12 0.13 0.08 0.02 0.01 0.01 0.01 0.01 0.01 0.00 0.01 0.01 0.01 0.00 0.00 0.00 0.00 0.00 0.00 0.00 0.00 0.00 0.00 0.00 0.00 0.00 0.00 0.00 0.00 0.00 0.00 0.00 0.00
0.03 0.03 0.04 0.02 0.00 0.01 0.03 0.03 0.03 0.07 0.13 0.12 0.08 0.06 0.05 0.05 0.06 0.04 0.02 0.02 0.01 0.01 0.00 0.00 0.00 0.00 0.00 0.00 0.00 0.00 0.00 0.00 0.00 0.00 0.00 0.00 0.00 0.00 0.00 0.00 0.00 0.00 0.00 0.00
0.01 0.01 0.00 0.00 0.00 0.00 0.01 0.01 0.02 0.03 0.05 0.07 0.04 0.02 0.02 0.02 0.02 0.02 0.01 0.00 0.00 0.00 0.00 0.00 0.00 0.00 0.00 0.00 0.00 0.00 0.00 0.00 0.00 0.00 0.00 0.00 0.00 0.00 0.00 0.00 0.00 0.00 0.00 0.00
0.00 0.01 0.00 0.00 0.00 0.00 0.00 0.00 0.00 0.00 0.00 0.00 0.00 0.00 0.00 0.00 0.00 0.00 0.00 0.00 0.00 0.00 0.00 0.00 0.00 0.00 0.00 0.00 0.00 0.00 0.00 0.00 0.00 0.00 0.00 0.00 0.00 0.00 0.00 0.00 0.00 0.00 0.00 0.00
0.00 0.00 0.01 0.00 0.00 0.00 0.00 0.00 0.00 0.00 0.00 0.00 0.00 0.00 0.00 0.00 0.00 0.00 0.00 0.00 0.00 0.00 0.00 0.00 0.00 0.00 0.00 0.00 0.00 0.00 0.00 0.00 0.00 0.00 0.00 0.00 0.00 0.00 0.00 0.00 0.00 0.00 0.00 0.00
0.00 0.00 0.01 0.01 0.00 0.00 0.00 0.00 0.00 0.00 0.00 0.00 0.00 0.00 0.00 0.00 0.00 0.00 0.00 0.00 0.00 0.00 0.00 0.00 0.00 0.00 0.00 0.00 0.00 0.00 0.00 0.00 0.00 0.00 0.00 0.00 0.00 0.00 0.00 0.00 0.00 0.00 0.00 0.00
0.00 0.00 0.01 0.02 0.00 0.00 0.00 0.00 0.00 0.00 0.00 0.00 0.00 0.00 0.00 0.00 0.00 0.00 0.00 0.00 0.00 0.00 0.00 0.00 0.00 0.00 0.00 0.00 0.00 0.00 0.00 0.00 0.00 0.00 0.00 0.00 0.00 0.00 0.00 0.00 0.00 0.00 0.00 0.00
0.00 0.00 0.01 0.01 0.01 0.00 0.00 0.00 0.00 0.00 0.00 0.00 0.00 0.00 0.00 0.00 0.00 0.00 0.00 0.00 0.00 0.00 0.00 0.00 0.00 0.00 0.00 0.00 0.00 0.00 0.00 0.00 0.00 0.00 0.00 0.00 0.00 0.00 0.00 0.00 0.00 0.00 0.00 0.00
0.00 0.00 0.01 0.01 0.01 0.01 0.00 0.00 0.00 0.00 0.00 0.00 0.00 0.00 0.00 0.00 0.00 0.00 0.00 0.00 0.00 0.00 0.00 0.00 0.00 0.00 0.00 0.00 0.00 0.00 0.00 0.00 0.00 0.00 0.00 0.00 0.00 0.00 0.00 0.00 0.00 0.00 0.00 0.00
0.00 0.00 0.00 0.00 0.01 0.00 0.00 0.00 0.00 0.00 0.00 0.00 0.00 0.00 0.00 0.00 0.00 0.00 0.00 0.00 0.00 0.00 0.00 0.00 0.00 0.00 0.00 0.00 0.00 0.00 0.00 0.00 0.00 0.00 0.00 0.00 0.00 0.00 0.00 0.00 0.00 0.00 0.00 0.00
0.00 0.00 0.00 0.00 0.00 0.00 0.00 0.00 0.00 0.00 0.00 0.00 0.00 0.00 0.00 0.00 0.00 0.00 0.00 0.00 0.00 0.00 0.00 0.00 0.00 0.00 0.00 0.00 0.00 0.00 0.00 0.00 0.00 0.00 0.00 0.00 0.00 0.00 0.00 0.00 0.00 0.00 0.00 0.00
0.00 0.00 0.00 0.00 0.00 0.00 0.00 0.00 0.00 0.00 0.00 0.00 0.00 0.00 0.00 0.00 0.00 0.00 0.00 0.00 0.00 0.00 0.00 0.00 0.00 0.00 0.00 0.00 0.00 0.00 0.00 0.00 0.00 0.00 0.00 0.00 0.00 0.00 0.00 0.00 0.00 0.00 0.00 0.00
0.00 0.00 0.00 0.00 0.00 0.00 0.00 0.00 0.00 0.00 0.00 0.00 0.00 0.00 0.00 0.00 0.00 0.00 0.00 0.00 0.00 0.00 0.00 0.00 0.00 0.00 0.00 0.00 0.00 0.00 0.00 0.00 0.00 0.00 0.00 0.00 0.00 0.00 0.00 0.00 0.00 0.00 0.00 0.01
0.00 0.00 0.00 0.00 0.00 0.00 0.00 0.00 0.00 0.00 0.00 0.00 0.00 0.00 0.00 0.00 0.00 0.00 0.00 0.00 0.00 0.00 0.00 0.00 0.00 0.00 0.00 0.00 0.00 0.00 0.00 0.00 0.00 0.00 0.00 0.00 0.00 0.00 0.00 0.00 0.00 0.00 0.00 0.01
MSLP
1016.69 1016.78 1016.82 1016.82 1016.82 1016.83 1016.85 1016.84 1016.78 1016.62 1016.31 1015.84 1015.22 1014.48 1013.70 1012.96 1012.34 1011.93 1011.75 1011.80 1012.04 1012.40 1012.78 1013.11 1013.31 1013.36 1013.26 1013.04 1012.77 1012.51 1012.34 1012.28 1012.36 1012.57 1012.88 1013.24 1013.62 1013.98 1014.32 1014.63 1014.93 1015.24 1015.60 1016.01
1016.68 1016.67 1016.64 1016.61 1016.60 1016.64 1016.71 1016.76 1016.74 1016.59 1016.27 1015.76 1015.09 1014.30 1013.50 1012.78 1012.25 1011.97 1011.99 1012.27 1012.76 1013.37 1013.97 1014.47 1014.78 1014.87 1014.75 1014.48 1014.11 1013.74 1013.44 1013.27 1013.24 1013.35 1013.57 1013.85 1014.15 1014.42 1014.67 1014.89 1015.11 1015.35 1015.64 1016.00
1016.54 1016.45 1016.36 1016.31 1016.33 1016.41 1016.54 1016.66 1016.69 1016.57 1016.25 1015.72 1015.02 1014.21 1013.40 1012.72 1012.28 1012.15 1012.34 1012.84 1013.56 1014.39 1015.19 1015.84 1016.25 1016.39 1016.27 1015.95 1015.51 1015.05 1014.66 1014.39 1014.27 1014.30 1014.43 1014.62 1014.82 1015.01 1015.16 1015.29 1015.42 1015.58 1015.80 1016.09
1016.31 1016.16 1016.04 1015.99 1016.05 1016.21 1016.41 1016.61 1016.70 1016.62 1016.32 1015.79 1015.08 1014.27 1013.48 1012.85 1012.49 1012.47 1012.82 1013.49 1014.39 1015.38 1016.33 1017.09 1017.58 1017.77 1017.66 1017.32 1016.84 1016.33 1015.88 1015.54 1015.36 1015.31 1015.37 1015.48 1015.60 1015.70 1015.75 1015.79 1015.82 1015.88 1016.02 1016.23
1016.04 1015.86 1015.74 1015.73 1015.85 1016.08 1016.37 1016.65 1016.81 1016.78 1016.52 1016.02 1015.32 1014.53 1013.77 1013.19 1012.90 1012.96 1013.41 1014.18 1015.18 1016.27 1017.30 1018.13 1018.67 1018.89 1018.80 1018.47 1018.00 1017.48 1017.01 1016.65 1016.44 1016.35 1016.35 1016.40 1016.44 1016.45 1016.42 1016.35 1016.28 1016.25 1016.28 1016.40
1015.78 1015.61 1015.52 1015.57 1015.76 1016.07 1016.45 1016.81 1017.04 1017.07 1016.85 1016.39 1015.73 1014.98 1014.26 1013.73 1013.48 1013.60 1014.09 1014.90 1015.92 1017.03 1018.07 1018.91 1019.47 1019.72 1019.66 1019.37 1018.93 1018.45 1018.02 1017.68 1017.47 1017.37 1017.34 1017.34 1017.33 1017.26 1017.14 1016.97 1016.80 1016.66 1016.59 1016.60
1015.58 1015.45 1015.42 1015.53 1015.80 1016.19 1016.64 1017.05 1017.34 1017.42 1017.26 1016.84 1016.24 1015.55 1014.90 1014.41 1014.20 1014.34 1014.82 1015.61 1016.59 1017.65 1018.65 1019.46 1020.01 1020.26 1020.24 1020.01 1019.65 1019.26 1018.90 1018.63 1018.46 1018.38 1018.34 1018.31 1018.24 1018.11 1017.91 1017.65 1017.39 1017.14 1016.95 1016.84
1015.46 1015.40 1015.44 1015.63 1015.96 1016.40 1016.89 1017.34 1017.65 1017.77 1017.64 1017.29 1016.76 1016.15 1015.57 1015.14 1014.97 1015.11 1015.56 1016.29 1017.19 1018.15 1019.06 1019.80 1020.32 1020.58 1020.61 1020.46 1020.21 1019.92 1019.67 1019.49 1019.39 1019.35 1019.33 1019.29 1019.18 1018.99 1018.72 1018.39 1018.02 1017.68 1017.38 1017.15
1015.46 1015.48 1015.60 1015.85 1016.22 1016.68 1017.16 1017.59 1017.90 1018.01 1017.92 1017.62 1017.17 1016.65 1016.16 1015.82 1015.70 1015.84 1016.26 1016.91 1017.70 1018.55 1019.35 1020.01 1020.48 1020.75 1020.83 1020.77 1020.64 1020.48 1020.36 1020.29 1020.27 1020.28 1020.28 1020.23 1020.09 1019.86 1019.53 1019.13 1018.70 1018.26 1017.87 1017.54
1015.58 1015.70 1015.90 1016.19 1016.56 1016.98 1017.41 1017.78 1018.02 1018.10 1018.01 1017.75 1017.38 1016.96 1016.59 1016.35 1016.30 1016.47 1016.87 1017.45 1018.14 1018.87 1019.56 1020.13 1020.56 1020.83 1020.96 1020.99 1020.98 1020.95 1020.95 1020.99 1021.04 1021.10 1021.12 1021.06 1020.91 1020.64 1020.28 1019.83 1019.34 1018.85 1018.38 1017.96
1015.87 1016.09 1016.34 1016.64 1016.98 1017.32 1017.64 1017.88 1018.02 1018.02 1017.90 1017.66 1017.36 1017.06 1016.81 1016.69 1016.74 1016.96 1017.36 1017.89 1018.50 1019.13 1019.71 1020.21 1020.59 1020.86 1021.03 1021.15 1021.23 1021.32 1021.42 1021.53 1021.64 1021.73 1021.76 1021.69 1021.52 1021.24 1020.85 1020.39 1019.87 1019.35 1018.84 1018.37
1016.37 1016.66 1016.95 1017.23 1017.49 1017.71 1017.87 1017.95 1017.94 1017.84 1017.65 1017.42 1017.18 1016.98 1016.86 1016.87 1017.03 1017.32 1017.74 1018.25 1018.79 1019.34 1019.83 1020.25 1020.59 1020.85 1021.05 1021.22 1021.38 1021.53 1021.70 1021.86 1022.00 1022.09 1022.11 1022.03 1021.84 1021.55 1021.16 1020.70 1020.20 1019.69 1019.18 1018.69
1017.10 1017.45 1017.74 1017.98 1018.13 1018.20 1018.18 1018.07 1017.89 1017.65 1017.39 1017.14 1016.94 1016.83 1016.83 1016.97 1017.23 1017.60 1018.04 1018.54 1019.03 1019.50 1019.92 1020.27 1020.55 1020.79 1021.00 1021.19 1021.38 1021.57 1021.76 1021.93 1022.07 1022.14 1022.13 1022.02 1021.82 1021.53 1021.16 1020.73 1020.27 1019.79 1019.31 1018.84
1018.07 1018.45 1018.73 1018.89 1018.93 1018.84 1018.63 1018.33 1017.97 1017.59 1017.24 1016.96 1016.79 1016.75 1016.84 1017.07 1017.42 1017.84 1018.31 1018.78 1019.23 1019.63 1019.96 1020.24 1020.47 1020.67 1020.85 1021.04 1021.23 1021.42 1021.60 1021.75 1021.85 1021.87 1021.82 1021.69 1021.47 1021.18 1020.84 1020.46 1020.06 1019.64 1019.21 1018.78
1019.25 1019.63 1019.87 1019.95 1019.87 1019.62 1019.25 1018.77 1018.25 1017.75 1017.32 1017.01 1016.84 1016.84 1016.99 1017.29 1017.68 1018.13 1018.58 1019.02 1019.40 1019.71 1019.96 1020.16 1020.32 1020.47 1020.62 1020.78 1020.95 1021.12 1021.26 1021.37 1021.41 1021.39 1021.29 1021.12 1020.89 1020.61 1020.30 1019.97 1019.63 1019.28 1018.91 1018.52
1020.57 1020.91 1021.10 1021.09 1020.90 1020.53 1020.01 1019.40 1018.76 1018.16 1017.67 1017.32 1017.15 1017.16 1017.34 1017.65 1018.04 1018.47 1018.88 1019.25 1019.54 1019.77 1019.93 1020.04 1020.14 1020.23 1020.34 1020.47 1020.61 1020.74 1020.85 1020.90 1020.90 1020.82 1020.68 1020.48 1020.23 1019.96 1019.68 1019.39 1019.11 1018.81 1018.48 1018.12
1021.89 1022.18 1022.29 1022.20 1021.92 1021.45 1020.83 1020.14 1019.43 1018.77 1018.24 1017.87 1017.69 1017.69 1017.86 1018.14 1018.50 1018.86 1019.20 1019.47 1019.66 1019.79 1019.86 1019.90 1019.93 1019.98 1020.07 1020.17 1020.29 1020.41 1020.49 1020.51 1020.47 1020.35 1020.17 1019.94 1019.68 1019.41 1019.14 1018.87 1018.61 1018.34 1018.03 1017.67
1023.05 1023.25 1023.28 1023.12 1022.76 1022.23 1021.57 1020.84 1020.11 1019.45 1018.91 1018.54 1018.35 1018.33 1018.46 1018.69 1018.97 1019.25 1019.48 1019.65 1019.74 1019.78 1019.77 1019.75 1019.76 1019.80 1019.88 1019.99 1020.12 1020.24 1020.32 1020.33 1020.27 1020.14 1019.93 1019.68 1019.39 1019.11 1018.82 1018.55 1018.28 1017.99 1017.66 1017.26
1023.86 1023.96 1023.90 1023.67 1023.27 1022.71 1022.05 1021.34 1020.63 1020.00 1019.49 1019.13 1018.94 1018.91 1018.99 1019.16 1019.36 1019.54 1019.67 1019.75 1019.76 1019.73 1019.69 1019.66 1019.66 1019.72 1019.84 1020.00 1020.17 1020.32 1020.42 1020.46 1020.40 1020.26 1020.04 1019.76 1019.45 1019.12 1018.80 1018.48 1018.15 1017.80 1017.40 1016.93
1024.18 1024.18 1024.03 1023.74 1023.31 1022.76 1022.12 1021.46 1020.82 1020.25 1019.79 1019.48 1019.30 1019.26 1019.31 1019.42 1019.55 1019.66 1019.73 1019.74 1019.72 1019.67 1019.63 1019.63 1019.69 1019.81 1019.99 1020.22 1020.46 1020.67 1020.82 1020.88 1020.84 1020.69 1020.46 1020.15 1019.80 1019.42 1019.03 1018.63 1018.21 1017.75 1017.25 1016.67
1023.94 1023.83 1023.60 1023.26 1022.81 1022.28 1021.70 1021.10 1020.54 1020.06 1019.69 1019.43 1019.29 1019.26 1019.31 1019.40 1019.50 1019.58 1019.62 1019.63 1019.62 1019.61 1019.63 1019.71 1019.85 1020.06 1020.34 1020.65 1020.96 1021.23 1021.42 1021.51 1021.48 1021.33 1021.08 1020.73 1020.32 1019.86 1019.38 1018.87 1018.33 1017.75 1017.12 1016.41
1023.13 1022.91 1022.61 1022.23 1021.78 1021.28 1020.76 1020.26 1019.80 1019.42 1019.13 1018.95 1018.88 1018.90 1018.97 1019.09 1019.20 1019.31 1019.40 1019.46 1019.53 1019.61 1019.73 1019.91 1020.17 1020.48 1020.85 1021.24 1021.60 1021.92 1022.13 1022.22 1022.18 1022.01 1021.71 1021.30 1020.82 1020.27 1019.68 1019.05 1018.38 1017.66 1016.89 1016.05
1021.81 1021.52 1021.16 1020.76 1020.32 1019.87 1019.42 1019.01 1018.66 1018.38 1018.21 1018.12 1018.14 1018.23 1018.38 1018.56 1018.75 1018.94 1019.13 1019.31 1019.50 1019.71 1019.96 1020.26 1020.62 1021.03 1021.46 1021.89 1022.28 1022.59 1022.78 1022.84 1022.76 1022.52 1022.16 1021.68 1021.10 1020.46 1019.76 1019.01 1018.21 1017.36 1016.46 1015.50
1020.13 1019.78 1019.41 1019.01 1018.60 1018.21 1017.85 1017.54 1017.29 1017.14 1017.07 1017.10 1017.22 1017.42 1017.68 1017.98 1018.29 1018.62 1018.94 1019.27 1019.61 1019.97 1020.35 1020.76 1021.21 1021.66 1022.11 1022.53 1022.88 1023.13 1023.25 1023.23 1023.06 1022.74 1022.29 1021.72 1021.05 1020.31 1019.50 1018.64 1017.73 1016.77 1015.76 1014.70
1018.28 1017.92 1017.54 1017.18 1016.83 1016.52 1016.26 1016.06 1015.93 1015.90 1015.96 1016.12 1016.37 1016.70 1017.10 1017.54 1018.00 1018.49 1018.98 1019.46 1019.94 1020.43 1020.91 1021.40 1021.87 1022.32 1022.72 1023.06 1023.31 1023.45 1023.45 1023.30 1023.02 1022.59 1022.04 1021.38 1020.62 1019.79 1018.90 1017.94 1016.94 1015.90 1014.80 1013.67
1016.45 1016.11 1015.79 1015.50 1015.24 1015.04 1014.89 1014.82 1014.83 1014.93 1015.13 1015.43 1015.82 1016.29 1016.83 1017.42 1018.05 1018.69 1019.32 1019.94 1020.54 1021.11 1021.64 1022.13 1022.57 1022.94 1023.23 1023.44 1023.53 1023.50 1023.34 1023.05 1022.63 1022.09 1021.44 1020.70 1019.87 1018.98 1018.02 1017.00 1015.94 1014.82 1013.67 1012.48
Thickness
5656 5648 5644 5651 5656 5655 5651 5646 5643 5652 5665 5660 5655 5658 5667 5678 5681 5686 5689 5687 5681 5671 5668 5666 5664 5662 5664 5666 5669 5671 5674 5676 5676 5671 5667 5664 5661 5660 5658 5656 5654 5651 5647 5642
5638 5635 5649 5656 5654 5647 5639 5631 5633 5643 5655 5650 5645 5647 5658 5668 5673 5678 5677 5673 5666 5657 5652 5649 5645 5643 5643 5645 5648 5652 5655 5658 5659 5658 5655 5652 5649 5647 5646 5644 5642 5639 5637 5633
5633 5643 5647 5642 5638 5633 5631 5626 5628 5628 5634 5639 5632 5633 5645 5662 5664 5661 5657 5652 5645 5639 5632 5627 5625 5622 5622 5625 5627 5630 5633 5637 5639 5640 5640 5637 5633 5631 5629 5628 5627 5626 5624 5622
5630 5636 5631 5627 5624 5624 5618 5629 5626 5619 5609 5609 5620 5607 5635 5645 5642 5636 5629 5623 5618 5614 5611 5607 5605 5603 5603 5603 5606 5609 5611 5614 5616 5619 5619 5617 5615 5612 5613 5613 5613 5612 5610 5608
5622 5621 5617 5615 5620 5620 5618 5620 5614 5609 5601 5595 5604 5597 5620 5637 5625 5611 5603 5597 5591 5589 5587 5585 5584 5583 5583 5584 5586 5589 5590 5591 5592 5595 5596 5596 5595 5595 5595 5596 5596 5596 5595 5594
5612 5617 5615 5615 5617 5611 5608 5603 5600 5597 5589 5578 5601 5598 5611 5621 5617 5598 5587 5580 5573 5568 5565 5563 5562 5563 5564 5565 5567 5568 5569 5569 5570 5571 5571 5572 5572 5574 5575 5577 5578 5578 5579 5579
5603 5603 5604 5604 5596 5593 5592 5584 5571 5571 5566 5573 5597 5591 5603 5610 5607 5593 5577 5564 5556 5550 5545 5542 5541 5542 5543 5544 5546 5548 5547 5546 5547 5547 5548 5548 5549 5551 5553 5555 5557 5559 5560 5562
5585 5587 5590 5587 5588 5585 5582 5578 5556 5544 5551 5561 5572 5571 5591 5590 5582 5572 5559 5548 5539 5532 5527 5525 5523 5522 5522 5522 5524 5525 5525 5524 5524 5524 5524 5524 5525 5526 5528 5531 5533 5535 5538 5541
5575 5574 5575 5578 5578 5574 5568 5563 5563 5541 5534 5529 5551 5575 5573 5567 5558 5547 5539 5529 5520 5515 5511 5508 5505 5504 5503 5502 5501 5501 5500 5499 5500 5500 5500 5500 5501 5502 5503 5505 5508 5510 5513 5517
5564 5554 5564 5562 5560 5556 5552 5548 5530 5523 5513 5516 5541 5556 5565 5556 5540 5530 5520 5511 5504 5500 5496 5493 5489 5486 5484 5482 5479 5478 5476 5475 5475 5476 5476 5476 5477 5478 5480 5481 5483 5485 5488 5491
5547 5535 5541 5546 5545 5543 5535 5530 5526 5517 5510 5506 5509 5533 5553 5545 5530 5515 5504 5496 5489 5484 5480 5475 5471 5467 5464 5461 5458 5455 5453 5451 5450 5451 5451 5451 5452 5454 5456 5457 5458 5460 5463 5466
5530 5519 5515 5531 5543 5540 5531 5527 5519 5504 5499 5501 5500 5510 5520 5515 5506 5495 5485 5479 5473 5467 5461 5455 5451 5446 5442 5438 5436 5433 5431 5429 5427 5427 5426 5427 5427 5428 5430 5432 5434 5436 5439 5442
5512 5499 5483 5494 5519 5518 5511 5508 5502 5490 5480 5479 5478 5488 5489 5488 5480 5475 5468 5461 5454 5447 5442 5436 5431 5426 5422 5418 5415 5412 5410 5407 5405 5404 5403 5403 5403 5404 5405 5407 5409 5411 5414 5417
5493 5482 5470 5467 5489 5491 5478 5479 5480 5467 5454 5455 5463 5473 5483 5476 5465 5456 5447 5440 5434 5429 5423 5417 5412 5407 5402 5397 5393 5391 5388 5385 5382 5380 5379 5378 5378 5379 5380 5382 5383 5385 5388 5392
5470 5454 5456 5461 5469 5466 5459 5461 5465 5455 5452 5443 5451 5458 5468 5459 5446 5437 5428 5421 5415 5409 5404 5399 5392 5385 5380 5376 5371 5367 5364 5360 5357 5355 5353 5352 5352 5354 5355 5356 5358 5361 5363 5366
5444 5427 5421 5417 5433 5428 5426 5442 5445 5442 5443 5442 5441 5443 5433 5418 5415 5408 5402 5397 5391 5386 5381 5376 5370 5363 5357 5352 5348 5343 5339 5334 5330 5327 5326 5326 5326 5327 5328 5329 5331 5334 5336 5338
5413 5399 5382 5379 5410 5398 5388 5426 5427 5426 5434 5430 5419 5405 5390 5388 5385 5380 5374 5370 5365 5361 5357 5351 5344 5338 5331 5326 5321 5317 5313 5309 5304 5302 5300 5299 5298 5299 5301 5301 5303 5305 5306 5309
5394 5380 5359 5353 5356 5334 5402 5428 5421 5411 5409 5404 5386 5369 5365 5361 5360 5357 5350 5343 5340 5338 5333 5327 5321 5316 5309 5303 5297 5291 5287 5282 5279 5276 5275 5274 5272 5273 5274 5273 5275 5275 5276 5278
5385 5369 5348 5335 5326 5340 5384 5406 5395 5381 5376 5374 5358 5346 5343 5342 5336 5334 5333 5326 5322 5318 5313 5307 5303 5297 5290 5282 5275 5270 5265 5261 5257 5254 5252 5249 5245 5243 5244 5244 5245 5245 5244 5247
5369 5360 5340 5324 5315 5311 5362 5366 5363 5352 5332 5341 5332 5324 5321 5317 5301 5307 5316 5310 5306 5302 5296 5292 5285 5278 5269 5262 5256 5251 5246 5240 5236 5232 5228 5223 5218 5213 5211 5211 5212 5212 5211 5215
5333 5323 5317 5312 5300 5306 5345 5340 5335 5311 5311 5315 5313 5308 5303 5297 5292 5296 5299 5296 5293 5289 5281 5274 5267 5259 5250 5242 5236 5231 5225 5218 5213 5207 5202 5197 5190 5184 5181 5180 5180 5178 5179 5183
5320 5311 5302 5294 5282 5292 5321 5313 5306 5304 5305 5301 5297 5294 5290 5288 5288 5287 5285 5282 5278 5270 5262 5255 5247 5239 5230 5222 5214 5208 5201 5195 5188 5182 5175 5169 5163 5158 5155 5153 5154 5152 5151 5154
5323 5322 5310 5301 5298 5314 5306 5302 5301 5302 5296 5293 5288 5286 5283 5279 5278 5276 5273 5268 5260 5251 5243 5234 5225 5218 5210 5200 5191 5182 5178 5171 5165 5157 5150 5146 5143 5139 5134 5132 5132 5132 5131 5133
5315 5323 5309 5297 5301 5308 5304 5298 5295 5291 5286 5286 5283 5279 5275 5270 5267 5263 5257 5250 5241 5232 5222 5213 5204 5198 5190 5180 5171 5161 5156 5150 5142 5137 5133 5130 5127 5125 5121 5117 5116 5116 5116 5116
5301 5306 5294 5287 5294 5292 5294 5294 5290 5285 5281 5277 5274 5270 5265 5260 5255 5248 5239 5228 5220 5212 5201 5192 5184 5178 5171 5163 5155 5146 5139 5133 5127 5123 5121 5118 5115 5112 5110 5108 5105 5105 5106 5103
5303 5298 5287 5282 5289 5283 5284 5287 5284 5277 5272 5268 5262 5257 5251 5245 5238 5229 5219 5209 5199 5189 5180 5172 5166 5159 5153 5146 5140 5132 5125 5119 5115 5114 5111 5108 5105 5103 5103 5104 5104 5101 5101 5102